Location: Borotice
(49.7353°N, 14.2802°E)
Time: 11:56:23
(UTC+00:00)

Meteor 2-2 Rocket - Pass Details

Date: 11 December 2025
Orbit: 851 x 928 km, 81.3° (Epoch: 20 April)

Event Time Altitude Azimuth Distance (km) Brightness Sun altitude
Rises 17:33:29 0° 186° (S) 3,425 7.6 -23.3°
Reaches altitude 10° 17:35:54 10° 185° (S) 2,485 6.8 -23.6°
Maximum altitude 17:41:32 80° 100° (E) 871 4.1 -24.5°
Enters shadow 17:43:42 39° 19° (NNE) 1,254 4.8 -24.9°
